Time,TemperatureF,DewpointF,PressureIn,WindDirection,WindDirectionDegrees,WindSpeedMPH,WindSpeedGustMPH,Humidity,HourlyPrecipIn,Conditions,Clouds,dailyrainin,SoftwareType,DateUTC
2013-08-13 00:00:00,57.4,57.4,29.85,SW,222,4.0,8.1,100,0.00,,---,0.00,VWS V14.01,2013-08-13 04:00:00,
2013-08-13 00:05:00,59.2,54.7,29.83,SW,218,7.6,8.5,85,0.00,,---,0.00,VWS V14.01,2013-08-13 04:05:00,
2013-08-13 00:10:00,59.4,54.2,29.83,SW,215,7.6,9.8,83,0.00,,---,0.00,VWS V14.01,2013-08-13 04:10:00,
2013-08-13 00:15:00,59.7,53.9,29.83,SSW,211,10.7,12.1,81,0.00,,---,0.00,VWS V14.01,2013-08-13 04:15:00,
2013-08-13 00:20:00,60.1,53.6,29.83,SW,225,14.3,14.3,79,0.00,,---,0.00,VWS V14.01,2013-08-13 04:20:00,
2013-08-13 00:25:00,60.1,53.6,29.83,SSW,211,14.8,14.8,79,0.00,,---,0.00,VWS V14.01,2013-08-13 04:25:00,
2013-08-13 00:30:00,60.3,53.4,29.83,SSW,202,13.4,16.6,78,0.00,,---,0.00,VWS V14.01,2013-08-13 04:30:00,
2013-08-13 00:35:00,60.1,53.2,29.83,SSW,212,9.4,13.4,78,0.00,,---,0.00,VWS V14.01,2013-08-13 04:35:00,
2013-08-13 00:40:00,59.9,53.0,29.83,SSW,207,9.4,10.7,78,0.00,,---,0.00,VWS V14.01,2013-08-13 04:40:00,
2013-08-13 00:45:00,58.8,54.7,29.85,SW,214,6.7,10.3,86,0.00,,---,0.00,VWS V14.01,2013-08-13 04:45:00,
2013-08-13 00:50:00,60.1,52.9,29.83,SSW,211,8.5,12.5,77,0.00,,---,0.00,VWS V14.01,2013-08-13 04:50:00,
2013-08-13 00:55:00,60.1,52.9,29.83,SSW,207,9.8,12.5,77,0.00,,---,0.00,VWS V14.01,2013-08-13 04:55:00,
2013-08-13 01:00:00,59.0,54.5,29.83,SW,215,6.7,9.4,85,0.00,,---,0.00,VWS V14.01,2013-08-13 05:00:00,
2013-08-13 01:05:00,60.3,53.0,29.83,SSW,202,9.4,14.8,77,0.00,,---,0.00,VWS V14.01,2013-08-13 05:05:00,
2013-08-13 01:10:00,59.4,54.2,29.83,SW,215,7.6,9.8,83,0.00,,---,0.00,VWS V14.01,2013-08-13 05:10:00,
2013-08-13 01:15:00,60.3,52.7,29.83,SSW,204,8.5,12.5,76,0.00,,---,0.00,VWS V14.01,2013-08-13 05:15:00,
2013-08-13 01:20:00,60.3,52.7,29.83,SSW,211,10.7,11.6,76,0.00,,---,0.00,VWS V14.01,2013-08-13 05:20:00,
2013-08-13 01:25:00,60.3,52.3,29.83,SW,219,10.3,13.4,75,0.00,,---,0.00,VWS V14.01,2013-08-13 05:25:00,
2013-08-13 01:30:00,60.6,52.7,29.83,SSW,211,13.9,15.2,75,0.00,,---,0.00,VWS V14.01,2013-08-13 05:30:00,
2013-08-13 01:35:00,60.1,53.2,29.83,SSW,212,9.4,13.4,78,0.00,,---,0.00,VWS V14.01,2013-08-13 05:35:00,
2013-08-13 01:40:00,60.6,52.7,29.83,SW,215,7.2,9.8,75,0.00,,---,0.00,VWS V14.01,2013-08-13 05:40:00,
2013-08-13 01:45:00,60.4,52.5,29.80,SW,221,9.4,10.3,75,0.00,,---,0.00,VWS V14.01,2013-08-13 05:45:00,
2013-08-13 01:50:00,60.1,52.9,29.83,SSW,211,8.5,12.5,77,0.00,,---,0.00,VWS V14.01,2013-08-13 05:50:00,
2013-08-13 01:55:00,60.4,52.5,29.80,SW,216,11.2,13.9,75,0.00,,---,0.00,VWS V14.01,2013-08-13 05:55:00,
2013-08-13 02:00:00,60.1,52.9,29.83,SSW,208,7.2,12.1,77,0.00,,---,0.00,VWS V14.01,2013-08-13 06:00:00,
2013-08-13 02:05:00,60.6,52.3,29.80,SSW,208,8.9,11.6,74,0.00,,---,0.00,VWS V14.01,2013-08-13 06:05:00,
2013-08-13 02:10:00,60.6,52.3,29.80,SW,222,9.8,11.2,74,0.00,,---,0.00,VWS V14.01,2013-08-13 06:10:00,
2013-08-13 02:15:00,60.6,52.3,29.80,SW,214,7.2,10.3,74,0.00,,---,0.00,VWS V14.01,2013-08-13 06:15:00,
2013-08-13 02:20:00,60.6,52.3,29.80,SW,219,8.1,11.2,74,0.00,,---,0.00,VWS V14.01,2013-08-13 06:20:00,
2013-08-13 02:25:00,60.3,52.3,29.83,SW,219,10.3,13.4,75,0.00,,---,0.00,VWS V14.01,2013-08-13 06:25:00,
2013-08-13 02:30:00,60.4,52.1,29.80,SW,221,8.1,8.9,74,0.00,,---,0.00,VWS V14.01,2013-08-13 06:30:00,
2013-08-13 02:35:00,60.1,51.8,29.80,SW,230,7.6,9.4,74,0.00,,---,0.00,VWS V14.01,2013-08-13 06:35:00,
2013-08-13 02:40:00,60.6,52.7,29.83,SW,215,7.2,9.8,75,0.00,,---,0.00,VWS V14.01,2013-08-13 06:40:00,
2013-08-13 02:45:00,59.7,51.8,29.80,SW,233,4.5,9.4,75,0.00,,---,0.00,VWS V14.01,2013-08-13 06:45:00,
2013-08-13 02:50:00,60.4,52.5,29.80,SSW,211,9.4,12.1,75,0.00,,---,0.00,VWS V14.01,2013-08-13 06:50:00,
2013-08-13 02:55:00,58.8,52.0,29.80,WSW,257,5.8,8.5,78,0.00,,---,0.00,VWS V14.01,2013-08-13 06:55:00,
2013-08-13 03:00:00,60.4,52.1,29.80,SW,232,8.9,13.0,74,0.00,,---,0.00,VWS V14.01,2013-08-13 07:00:00,
2013-08-13 03:05:00,57.6,53.1,29.80,West,260,4.9,7.6,85,0.00,,---,0.00,VWS V14.01,2013-08-13 07:05:00,
2013-08-13 03:10:00,57.4,53.5,29.80,West,260,7.2,8.5,87,0.00,,---,0.00,VWS V14.01,2013-08-13 07:10:00,
2013-08-13 03:15:00,60.6,52.3,29.80,SW,214,7.2,10.3,74,0.00,,---,0.00,VWS V14.01,2013-08-13 07:15:00,
2013-08-13 03:20:00,57.4,53.9,29.80,SW,221,8.1,12.5,88,0.00,,---,0.00,VWS V14.01,2013-08-13 07:20:00,
2013-08-13 03:25:00,60.6,52.3,29.80,SW,225,4.5,8.1,74,0.00,,---,0.00,VWS V14.01,2013-08-13 07:25:00,
2013-08-13 03:30:00,56.8,54.2,29.77,SW,215,2.7,5.8,91,0.00,,---,0.00,VWS V14.01,2013-08-13 07:30:00,
2013-08-13 03:35:00,56.5,54.5,29.77,SW,215,3.6,4.0,93,0.00,,---,0.00,VWS V14.01,2013-08-13 07:35:00,
2013-08-13 03:40:00,56.3,55.8,29.77,SSW,207,4.9,8.1,98,0.00,,---,0.00,VWS V14.01,2013-08-13 07:40:00,
2013-08-13 03:45:00,56.1,56.1,29.77,SW,235,1.3,4.9,100,0.00,,---,0.00,VWS V14.01,2013-08-13 07:45:00,
2013-08-13 03:50:00,56.1,56.1,29.77,SW,232,4.9,5.4,100,0.00,,---,0.00,VWS V14.01,2013-08-13 07:50:00,
2013-08-13 03:55:00,56.1,56.1,29.77,SW,225,4.0,6.3,100,0.00,,---,0.00,VWS V14.01,2013-08-13 07:55:00,
2013-08-13 04:00:00,58.1,52.6,29.80,WSW,256,5.4,7.6,82,0.00,,---,0.00,VWS V14.01,2013-08-13 08:00:00,
2013-08-13 04:05:00,56.1,56.1,29.77,SW,223,0.0,3.6,100,0.00,,---,0.00,VWS V14.01,2013-08-13 08:05:00,
2013-08-13 04:10:00,55.9,55.9,29.77,SW,223,3.1,3.1,100,0.00,,---,0.00,VWS V14.01,2013-08-13 08:10:00,
2013-08-13 04:15:00,57.4,53.9,29.80,West,266,6.7,7.2,88,0.00,,---,0.00,VWS V14.01,2013-08-13 08:15:00,
2013-08-13 04:20:00,56.1,56.1,29.77,SW,223,0.4,2.2,100,0.00,,---,0.00,VWS V14.01,2013-08-13 08:20:00,
2013-08-13 04:25:00,56.1,56.1,29.77,SW,223,0.0,0.4,100,0.00,,---,0.00,VWS V14.01,2013-08-13 08:25:00,
2013-08-13 04:30:00,55.9,55.9,29.77,SW,223,2.2,2.2,100,0.00,,---,0.00,VWS V14.01,2013-08-13 08:30:00,
2013-08-13 04:35:00,55.9,55.9,29.77,SW,225,0.0,2.7,100,0.00,,---,0.00,VWS V14.01,2013-08-13 08:35:00,
2013-08-13 04:40:00,55.9,55.9,29.77,SW,223,0.0,0.0,100,0.00,,---,0.00,VWS V14.01,2013-08-13 08:40:00,
2013-08-13 04:45:00,55.9,55.9,29.77,SW,223,0.0,0.0,100,0.00,,---,0.00,VWS V14.01,2013-08-13 08:45:00,
2013-08-13 04:50:00,56.1,56.1,29.77,SW,232,4.9,5.4,100,0.00,,---,0.00,VWS V14.01,2013-08-13 08:50:00,
2013-08-13 04:55:00,55.9,55.9,29.77,SW,225,0.4,3.6,100,0.00,,---,0.00,VWS V14.01,2013-08-13 08:55:00,
2013-08-13 05:00:00,56.1,56.1,29.77,SW,223,1.8,5.4,100,0.00,,---,0.00,VWS V14.01,2013-08-13 09:00:00,
2013-08-13 05:05:00,55.8,55.8,29.77,SW,225,5.4,5.4,100,0.00,,---,0.00,VWS V14.01,2013-08-13 09:05:00,
2013-08-13 05:10:00,55.8,55.8,29.77,SW,222,1.8,5.8,100,0.00,,---,0.00,VWS V14.01,2013-08-13 09:10:00,
2013-08-13 05:15:00,55.9,55.9,29.77,SW,223,0.0,4.9,100,0.00,,---,0.00,VWS V14.01,2013-08-13 09:15:00,
2013-08-13 05:20:00,55.8,55.8,29.77,SW,222,0.0,3.6,100,0.00,,---,0.00,VWS V14.01,2013-08-13 09:20:00,
2013-08-13 05:25:00,56.1,56.1,29.77,SW,223,0.0,0.4,100,0.00,,---,0.00,VWS V14.01,2013-08-13 09:25:00,
2013-08-13 05:30:00,55.9,55.9,29.77,SW,223,2.2,2.2,100,0.00,,---,0.00,VWS V14.01,2013-08-13 09:30:00,
2013-08-13 05:35:00,55.8,55.8,29.77,SSW,204,4.5,9.8,100,0.00,,---,0.00,VWS V14.01,2013-08-13 09:35:00,
2013-08-13 05:40:00,55.9,55.9,29.77,SW,223,0.0,0.0,100,0.00,,---,0.00,VWS V14.01,2013-08-13 09:40:00,
2013-08-13 05:45:00,55.6,55.6,29.77,SSW,202,0.0,2.7,100,0.00,,---,0.00,VWS V14.01,2013-08-13 09:45:00,
2013-08-13 05:50:00,55.6,55.6,29.77,SSW,202,0.0,0.0,100,0.00,,---,0.00,VWS V14.01,2013-08-13 09:50:00,
2013-08-13 05:55:00,55.9,55.9,29.77,SW,225,0.4,3.6,100,0.00,,---,0.00,VWS V14.01,2013-08-13 09:55:00,
2013-08-13 06:00:00,55.4,55.4,29.77,SSW,202,0.0,0.0,100,0.00,,---,0.00,VWS V14.01,2013-08-13 10:00:00,
2013-08-13 06:05:00,55.4,55.4,29.77,SSW,202,0.0,0.0,100,0.00,,---,0.00,VWS V14.01,2013-08-13 10:05:00,
2013-08-13 06:10:00,55.8,55.8,29.77,SW,222,1.8,5.8,100,0.00,,---,0.00,VWS V14.01,2013-08-13 10:10:00,
2013-08-13 06:15:00,55.6,55.6,29.77,SSW,204,0.0,1.8,100,0.00,,---,0.00,VWS V14.01,2013-08-13 10:15:00,
2013-08-13 06:20:00,55.6,55.6,29.77,SSW,204,6.7,7.2,100,0.00,,---,0.00,VWS V14.01,2013-08-13 10:20:00,
2013-08-13 06:25:00,55.6,55.6,29.77,SW,222,0.0,0.0,100,0.00,,---,0.00,VWS V14.01,2013-08-13 10:25:00,
2013-08-13 06:30:00,55.4,55.4,29.77,SSW,207,2.7,4.5,100,0.00,,---,0.00,VWS V14.01,2013-08-13 10:30:00,
2013-08-13 06:35:00,55.8,55.8,29.77,SSW,204,4.5,9.8,100,0.00,,---,0.00,VWS V14.01,2013-08-13 10:35:00,
2013-08-13 06:40:00,55.4,55.4,29.77,SSW,204,3.6,3.6,100,0.00,,---,0.00,VWS V14.01,2013-08-13 10:40:00,
2013-08-13 06:45:00,55.4,55.4,29.77,SSW,204,0.0,4.0,100,0.00,,---,0.00,VWS V14.01,2013-08-13 10:45:00,
2013-08-13 06:50:00,55.6,55.6,29.77,SSW,202,0.0,0.0,100,0.00,,---,0.00,VWS V14.01,2013-08-13 10:50:00,
2013-08-13 06:55:00,55.6,55.6,29.77,SSW,204,0.4,3.6,100,0.00,,---,0.00,VWS V14.01,2013-08-13 10:55:00,
2013-08-13 07:00:00,55.4,55.4,29.77,SSW,202,0.0,0.0,100,0.00,,---,0.00,VWS V14.01,2013-08-13 11:00:00,
2013-08-13 07:05:00,55.4,55.4,29.77,SSW,204,3.1,3.6,100,0.00,,---,0.00,VWS V14.01,2013-08-13 11:05:00,
2013-08-13 07:10:00,55.4,55.4,29.77,SSW,204,0.0,0.0,100,0.00,,---,0.00,VWS V14.01,2013-08-13 11:10:00,
2013-08-13 07:15:00,55.4,55.4,29.74,SSW,204,2.2,3.6,100,0.00,,---,0.00,VWS V14.01,2013-08-13 11:15:00,
2013-08-13 07:20:00,55.4,55.4,29.74,South,184,2.2,5.4,100,0.00,,---,0.00,VWS V14.01,2013-08-13 11:20:00,
2013-08-13 07:25:00,55.6,55.6,29.77,SSW,208,4.5,7.2,100,0.00,,---,0.00,VWS V14.01,2013-08-13 11:25:00,
2013-08-13 07:30:00,55.4,55.4,29.74,South,183,0.9,3.1,100,0.00,,---,0.00,VWS V14.01,2013-08-13 11:30:00,
2013-08-13 07:35:00,55.4,55.4,29.77,SSW,208,0.4,3.1,100,0.00,,---,0.00,VWS V14.01,2013-08-13 11:35:00,
2013-08-13 07:40:00,55.4,55.4,29.74,South,183,0.0,2.2,100,0.00,,---,0.00,VWS V14.01,2013-08-13 11:40:00,
2013-08-13 07:45:00,55.4,55.4,29.77,SSW,204,0.0,4.0,100,0.00,,---,0.00,VWS V14.01,2013-08-13 11:45:00,
2013-08-13 07:50:00,55.6,55.6,29.71,South,183,0.0,0.0,100,0.00,,---,0.00,VWS V14.01,2013-08-13 11:50:00,
2013-08-13 07:55:00,55.8,55.8,29.71,South,183,0.0,0.4,100,0.00,,---,0.00,VWS V14.01,2013-08-13 11:55:00,
2013-08-13 08:00:00,55.6,55.6,29.77,SSW,204,3.6,4.5,100,0.00,,---,0.00,VWS V14.01,2013-08-13 12:00:00,
2013-08-13 08:05:00,55.9,55.9,29.71,South,183,0.0,2.2,100,0.00,,---,0.00,VWS V14.01,2013-08-13 12:05:00,
2013-08-13 08:10:00,55.4,55.4,29.77,SSW,204,3.1,4.5,100,0.00,,---,0.00,VWS V14.01,2013-08-13 12:10:00,
2013-08-13 08:15:00,56.1,56.1,29.71,South,183,0.0,0.0,100,0.00,,---,0.00,VWS V14.01,2013-08-13 12:15:00,
2013-08-13 08:20:00,55.4,55.4,29.74,South,184,2.2,5.4,100,0.00,,---,0.00,VWS V14.01,2013-08-13 12:20:00,
2013-08-13 08:25:00,56.5,56.5,29.71,South,183,3.1,3.1,100,0.00,,---,0.00,VWS V14.01,2013-08-13 12:25:00,
2013-08-13 08:30:00,56.7,56.7,29.71,South,183,4.0,4.5,100,0.00,,---,0.00,VWS V14.01,2013-08-13 12:30:00,
2013-08-13 08:35:00,55.4,55.4,29.74,South,183,1.3,3.6,100,0.00,,---,0.00,VWS V14.01,2013-08-13 12:35:00,
2013-08-13 08:40:00,57.0,57.0,29.71,SSW,194,6.7,8.5,100,0.00,,---,0.00,VWS V14.01,2013-08-13 12:40:00,
2013-08-13 08:45:00,55.6,55.6,29.71,South,183,0.0,0.0,100,0.00,,---,0.00,VWS V14.01,2013-08-13 12:45:00,
2013-08-13 08:50:00,57.0,57.0,29.71,South,177,3.6,7.2,100,0.00,,---,0.00,VWS V14.01,2013-08-13 12:50:00,
2013-08-13 08:55:00,55.8,55.8,29.71,South,183,0.0,0.4,100,0.00,,---,0.00,VWS V14.01,2013-08-13 12:55:00,
2013-08-13 09:00:00,57.6,57.6,29.71,SSE,159,6.3,6.7,100,0.00,,---,0.00,VWS V14.01,2013-08-13 13:00:00,
2013-08-13 09:05:00,57.7,57.7,29.71,South,178,4.0,6.7,100,0.00,,---,0.00,VWS V14.01,2013-08-13 13:05:00,
2013-08-13 09:10:00,56.1,56.1,29.71,South,183,0.0,0.4,100,0.00,,---,0.00,VWS V14.01,2013-08-13 13:10:00,
2013-08-13 09:15:00,58.5,58.5,29.71,South,178,4.9,4.9,100,0.00,,---,0.00,VWS V14.01,2013-08-13 13:15:00,
2013-08-13 09:20:00,56.3,56.3,29.71,South,183,0.0,0.0,100,0.00,,---,0.00,VWS V14.01,2013-08-13 13:20:00,
2013-08-13 09:25:00,58.8,58.8,29.71,South,176,0.0,3.1,100,0.00,,---,0.00,VWS V14.01,2013-08-13 13:25:00,
2013-08-13 09:30:00,56.7,56.7,29.71,South,183,4.0,4.5,100,0.00,,---,0.00,VWS V14.01,2013-08-13 13:30:00,
2013-08-13 09:35:00,59.4,59.4,29.71,SSE,157,1.8,5.8,100,0.00,,---,0.00,VWS V14.01,2013-08-13 13:35:00,
2013-08-13 09:40:00,60.1,59.2,29.71,SW,216,8.5,8.9,97,0.00,,---,0.00,VWS V14.01,2013-08-13 13:40:00,
2013-08-13 09:45:00,60.3,57.3,29.71,SSW,209,4.0,8.5,90,0.00,,---,0.00,VWS V14.01,2013-08-13 13:45:00,
2013-08-13 09:50:00,61.7,57.5,29.71,South,183,3.1,6.7,86,0.00,,---,0.00,VWS V14.01,2013-08-13 13:50:00,
2013-08-13 09:55:00,57.2,57.2,29.71,South,176,4.5,6.3,100,0.00,,---,0.00,VWS V14.01,2013-08-13 13:55:00,
2013-08-13 10:00:00,64.4,57.4,29.74,SSE,149,10.3,10.3,78,0.00,,---,0.00,VWS V14.01,2013-08-13 14:00:00,
2013-08-13 10:05:00,57.7,57.7,29.71,South,178,4.0,6.7,100,0.00,,---,0.00,VWS V14.01,2013-08-13 14:05:00,
2013-08-13 10:10:00,64.8,57.4,29.74,SE,145,3.1,8.1,77,0.00,,---,0.00,VWS V14.01,2013-08-13 14:10:00,
2013-08-13 10:15:00,64.0,58.1,29.74,SSE,159,3.1,6.3,81,0.00,,---,0.00,VWS V14.01,2013-08-13 14:15:00,
2013-08-13 10:20:00,58.6,58.6,29.71,South,176,3.1,5.4,100,0.00,,---,0.00,VWS V14.01,2013-08-13 14:20:00,
2013-08-13 10:25:00,65.1,58.1,29.74,South,170,3.1,12.5,78,0.00,,---,0.00,VWS V14.01,2013-08-13 14:25:00,
2013-08-13 10:30:00,64.4,57.0,29.74,SE,143,7.6,10.3,77,0.00,,---,0.00,VWS V14.01,2013-08-13 14:30:00,
2013-08-13 10:35:00,63.7,57.8,29.74,SSW,192,7.6,9.4,81,0.00,,---,0.00,VWS V14.01,2013-08-13 14:35:00,
2013-08-13 10:40:00,60.1,59.2,29.71,SW,216,8.5,8.9,97,0.00,,---,0.00,VWS V14.01,2013-08-13 14:40:00,
2013-08-13 10:45:00,63.9,57.6,29.74,SSW,195,0.0,9.4,80,0.00,,---,0.00,VWS V14.01,2013-08-13 14:45:00,
2013-08-13 10:50:00,63.9,57.2,29.74,South,170,4.5,13.0,79,0.00,,---,0.00,VWS V14.01,2013-08-13 14:50:00,
2013-08-13 10:55:00,63.3,57.4,29.71,SSE,147,4.0,6.7,81,0.00,,---,0.00,VWS V14.01,2013-08-13 14:55:00,
2013-08-13 11:00:00,64.4,57.0,29.74,SSW,197,8.9,15.2,77,0.00,,---,0.00,VWS V14.01,2013-08-13 15:00:00,
2013-08-13 11:05:00,65.1,57.4,29.74,SE,125,7.6,10.3,76,0.00,,---,0.00,VWS V14.01,2013-08-13 15:05:00,
2013-08-13 11:10:00,65.1,57.7,29.74,SSW,211,8.1,13.4,77,0.00,,---,0.00,VWS V14.01,2013-08-13 15:10:00,
2013-08-13 11:15:00,65.1,57.4,29.74,South,171,5.4,8.5,76,0.00,,---,0.00,VWS V14.01,2013-08-13 15:15:00,
2013-08-13 11:20:00,65.5,57.4,29.74,SSW,197,7.2,11.6,75,0.00,,---,0.00,VWS V14.01,2013-08-13 15:20:00,
2013-08-13 11:25:00,65.7,57.5,29.74,South,187,10.7,14.3,75,0.00,,---,0.00,VWS V14.01,2013-08-13 15:25:00,
2013-08-13 11:30:00,66.6,57.7,29.71,SW,218,12.1,14.8,73,0.00,,---,0.00,VWS V14.01,2013-08-13 15:30:00,
2013-08-13 11:35:00,67.1,58.5,29.71,SW,229,6.3,12.1,74,0.00,,---,0.00,VWS V14.01,2013-08-13 15:35:00,
2013-08-13 11:40:00,63.7,58.1,29.74,South,173,5.4,8.9,82,0.00,,---,0.00,VWS V14.01,2013-08-13 15:40:00,
2013-08-13 11:45:00,69.4,57.6,29.71,SSW,200,8.5,12.1,66,0.00,,---,0.00,VWS V14.01,2013-08-13 15:45:00,
2013-08-13 11:50:00,68.2,58.4,29.71,SSW,211,6.7,15.2,71,0.00,,---,0.00,VWS V14.01,2013-08-13 15:50:00,
2013-08-13 11:55:00,63.7,57.4,29.74,SSW,204,8.1,10.7,80,0.00,,---,0.00,VWS V14.01,2013-08-13 15:55:00,
2013-08-13 12:00:00,66.6,56.5,29.71,WSW,256,4.9,10.3,70,0.00,,---,0.00,VWS V14.01,2013-08-13 16:00:00,
2013-08-13 12:05:00,65.1,58.1,29.74,SSW,195,10.7,13.4,78,0.00,,---,0.00,VWS V14.01,2013-08-13 16:05:00,
2013-08-13 12:10:00,65.3,56.4,29.71,SW,228,6.3,8.5,73,0.00,,---,0.00,VWS V14.01,2013-08-13 16:10:00,
2013-08-13 12:15:00,65.1,57.4,29.74,South,171,5.4,8.5,76,0.00,,---,0.00,VWS V14.01,2013-08-13 16:15:00,
2013-08-13 12:20:00,66.0,57.1,29.71,SW,229,1.8,3.6,73,0.00,,---,0.00,VWS V14.01,2013-08-13 16:20:00,
2013-08-13 12:25:00,66.6,57.3,29.71,SW,229,1.8,4.9,72,0.00,,---,0.00,VWS V14.01,2013-08-13 16:25:00,
2013-08-13 12:30:00,66.6,57.7,29.71,SW,218,12.1,14.8,73,0.00,,---,0.00,VWS V14.01,2013-08-13 16:30:00,
2013-08-13 12:35:00,66.7,57.4,29.71,SW,228,1.3,6.3,72,0.00,,---,0.00,VWS V14.01,2013-08-13 16:35:00,
2013-08-13 12:40:00,66.2,57.3,29.71,SSW,211,9.4,9.8,73,0.00,,---,0.00,VWS V14.01,2013-08-13 16:40:00,
2013-08-13 12:45:00,65.3,56.4,29.71,WSW,253,5.8,10.7,73,0.00,,---,0.00,VWS V14.01,2013-08-13 16:45:00,
2013-08-13 12:50:00,64.8,56.3,29.71,WSW,253,1.3,6.3,74,0.00,,---,0.00,VWS V14.01,2013-08-13 16:50:00,
2013-08-13 12:55:00,68.0,57.9,29.71,SW,232,5.8,9.4,70,0.00,,---,0.00,VWS V14.01,2013-08-13 16:55:00,
2013-08-13 13:00:00,65.1,57.0,29.71,WSW,247,5.8,6.3,75,0.00,,---,0.00,VWS V14.01,2013-08-13 17:00:00,
2013-08-13 13:05:00,65.7,56.8,29.71,SSW,211,8.5,8.5,73,0.00,,---,0.00,VWS V14.01,2013-08-13 17:05:00,
2013-08-13 13:10:00,65.3,56.4,29.71,SW,228,6.3,8.5,73,0.00,,---,0.00,VWS V14.01,2013-08-13 17:10:00,
2013-08-13 13:15:00,70.7,57.5,29.71,SW,218,0.0,7.6,63,0.00,,---,0.00,VWS V14.01,2013-08-13 17:15:00,
2013-08-13 13:20:00,72.1,58.9,29.71,South,180,3.1,6.7,63,0.00,,---,0.00,VWS V14.01,2013-08-13 17:20:00,
2013-08-13 13:25:00,71.4,57.7,29.71,West,281,0.0,11.6,62,0.00,,---,0.00,VWS V14.01,2013-08-13 17:25:00,
2013-08-13 13:30:00,66.9,57.2,29.71,SW,228,2.7,4.9,71,0.00,,---,0.00,VWS V14.01,2013-08-13 17:30:00,
2013-08-13 13:35:00,70.5,56.9,29.68,WSW,249,5.8,16.1,62,0.00,,---,0.00,VWS V14.01,2013-08-13 17:35:00,
2013-08-13 13:40:00,66.2,57.3,29.71,SSW,211,9.4,9.8,73,0.00,,---,0.00,VWS V14.01,2013-08-13 17:40:00,
2013-08-13 13:45:00,72.3,58.6,29.68,WNW,292,3.6,12.5,62,0.00,,---,0.00,VWS V14.01,2013-08-13 17:45:00,
2013-08-13 13:50:00,73.6,59.3,29.68,West,281,0.9,11.2,61,0.00,,---,0.00,VWS V14.01,2013-08-13 17:50:00,
2013-08-13 13:55:00,64.9,56.5,29.71,WNW,298,3.1,6.3,74,0.00,,---,0.00,VWS V14.01,2013-08-13 17:55:00,
2013-08-13 14:00:00,73.6,58.4,29.68,SW,235,7.6,9.8,59,0.00,,---,0.00,VWS V14.01,2013-08-13 18:00:00,
2013-08-13 14:05:00,65.8,57.3,29.71,WSW,238,4.9,5.8,74,0.00,,---,0.00,VWS V14.01,2013-08-13 18:05:00,
2013-08-13 14:10:00,72.0,57.8,29.68,West,260,7.2,8.9,61,0.00,,---,0.00,VWS V14.01,2013-08-13 18:10:00,
2013-08-13 14:15:00,70.3,56.7,29.68,WNW,287,7.2,9.8,62,0.00,,---,0.00,VWS V14.01,2013-08-13 18:15:00,
2013-08-13 14:20:00,69.8,56.7,29.68,WNW,294,5.8,11.2,63,0.00,,---,0.00,VWS V14.01,2013-08-13 18:20:00,
2013-08-13 14:25:00,68.7,55.6,29.68,West,276,4.9,8.9,63,0.00,,---,0.00,VWS V14.01,2013-08-13 18:25:00,
2013-08-13 14:30:00,72.1,58.0,29.68,SSW,200,8.1,13.0,61,0.00,,---,0.00,VWS V14.01,2013-08-13 18:30:00,
2013-08-13 14:35:00,67.6,55.5,29.68,NW,311,10.7,10.7,65,0.00,,---,0.00,VWS V14.01,2013-08-13 18:35:00,
2013-08-13 14:40:00,69.8,57.1,29.68,NW,304,8.5,10.7,64,0.00,,---,0.00,VWS V14.01,2013-08-13 18:40:00,
2013-08-13 14:45:00,72.3,58.6,29.68,WNW,292,3.6,12.5,62,0.00,,---,0.00,VWS V14.01,2013-08-13 18:45:00,
2013-08-13 14:50:00,69.1,56.0,29.68,NNW,328,6.7,10.7,63,0.00,,---,0.00,VWS V14.01,2013-08-13 18:50:00,
2013-08-13 14:55:00,73.6,58.4,29.68,WNW,291,8.1,11.6,59,0.00,,---,0.00,VWS V14.01,2013-08-13 18:55:00,
2013-08-13 15:00:00,71.1,57.4,29.68,NW,326,11.6,13.4,62,0.00,,---,0.00,VWS V14.01,2013-08-13 19:00:00,
2013-08-13 15:05:00,70.3,56.7,29.68,WNW,295,3.6,14.8,62,0.00,,---,0.00,VWS V14.01,2013-08-13 19:05:00,
2013-08-13 15:10:00,72.0,57.8,29.68,West,260,7.2,8.9,61,0.00,,---,0.00,VWS V14.01,2013-08-13 19:10:00,
2013-08-13 15:15:00,67.3,55.1,29.68,NNW,330,15.2,20.6,65,0.00,,---,0.00,VWS V14.01,2013-08-13 19:15:00,
2013-08-13 15:20:00,69.8,56.7,29.68,WNW,294,5.8,11.2,63,0.00,,---,0.00,VWS V14.01,2013-08-13 19:20:00,
2013-08-13 15:25:00,64.2,55.4,29.68,North,4,12.5,18.8,73,0.00,,---,0.00,VWS V14.01,2013-08-13 19:25:00,
2013-08-13 15:30:00,64.6,55.7,29.71,NNW,339,14.3,14.8,73,0.00,,---,0.00,VWS V14.01,2013-08-13 19:30:00,
2013-08-13 15:35:00,67.6,55.5,29.68,NW,311,10.7,10.7,65,0.00,,---,0.00,VWS V14.01,2013-08-13 19:35:00,
2013-08-13 15:40:00,63.7,54.5,29.71,NNW,328,9.8,17.9,72,0.00,,---,0.00,VWS V14.01,2013-08-13 19:40:00,
2013-08-13 15:45:00,63.3,54.5,29.71,NW,311,12.1,15.7,73,0.00,,---,0.00,VWS V14.01,2013-08-13 19:45:00,
2013-08-13 15:50:00,63.3,55.3,29.71,NW,311,9.8,14.3,75,0.00,,---,0.00,VWS V14.01,2013-08-13 19:50:00,
2013-08-13 15:55:00,63.5,54.7,29.71,NW,321,8.1,15.7,73,0.00,,---,0.00,VWS V14.01,2013-08-13 19:55:00,
2013-08-13 16:00:00,71.1,57.4,29.68,NW,326,11.6,13.4,62,0.00,,---,0.00,VWS V14.01,2013-08-13 20:00:00,
2013-08-13 16:05:00,63.7,55.2,29.71,NW,308,7.6,8.9,74,0.00,,---,0.00,VWS V14.01,2013-08-13 20:05:00,
2013-08-13 16:10:00,63.7,55.2,29.71,NW,319,6.3,10.7,74,0.00,,---,0.00,VWS V14.01,2013-08-13 20:10:00,
2013-08-13 16:15:00,67.3,55.1,29.68,NNW,330,15.2,20.6,65,0.00,,---,0.00,VWS V14.01,2013-08-13 20:15:00,
2013-08-13 16:20:00,63.3,55.3,29.71,NW,319,9.8,9.8,75,0.00,,---,0.00,VWS V14.01,2013-08-13 20:20:00,
2013-08-13 16:25:00,64.2,55.4,29.68,North,4,12.5,18.8,73,0.00,,---,0.00,VWS V14.01,2013-08-13 20:25:00,
2013-08-13 16:30:00,63.5,55.4,29.71,NW,316,7.6,9.8,75,0.00,,---,0.00,VWS V14.01,2013-08-13 20:30:00,
2013-08-13 16:35:00,63.9,55.8,29.71,WNW,294,0.0,7.6,75,0.00,,---,0.00,VWS V14.01,2013-08-13 20:35:00,
2013-08-13 16:40:00,64.4,56.3,29.71,NNW,339,6.3,8.5,75,0.00,,---,0.00,VWS V14.01,2013-08-13 20:40:00,
2013-08-13 16:45:00,64.9,56.8,29.71,NNW,329,0.4,8.5,75,0.00,,---,0.00,VWS V14.01,2013-08-13 20:45:00,
2013-08-13 16:50:00,63.3,55.3,29.71,NW,311,9.8,14.3,75,0.00,,---,0.00,VWS V14.01,2013-08-13 20:50:00,
2013-08-13 16:55:00,65.3,56.4,29.71,NW,322,5.4,9.4,73,0.00,,---,0.00,VWS V14.01,2013-08-13 20:55:00,
2013-08-13 17:00:00,65.1,56.3,29.71,NNW,342,9.4,11.2,73,0.00,,---,0.00,VWS V14.01,2013-08-13 21:00:00,
2013-08-13 17:05:00,63.7,55.2,29.71,NW,308,7.6,8.9,74,0.00,,---,0.00,VWS V14.01,2013-08-13 21:05:00,
2013-08-13 17:10:00,63.0,55.7,29.71,NW,318,8.1,13.4,77,0.00,,---,0.00,VWS V14.01,2013-08-13 21:10:00,
2013-08-13 17:15:00,63.3,54.9,29.71,NW,319,4.9,8.1,74,0.00,,---,0.00,VWS V14.01,2013-08-13 21:15:00,
2013-08-13 17:20:00,61.0,57.7,29.71,NNW,330,4.5,8.1,89,0.00,,---,0.00,VWS V14.01,2013-08-13 21:20:00,
2013-08-13 17:25:00,61.2,59.7,29.71,NNW,345,4.0,8.5,95,0.00,,---,0.00,VWS V14.01,2013-08-13 21:25:00,
2013-08-13 17:30:00,63.5,55.4,29.71,NW,316,7.6,9.8,75,0.00,,---,0.00,VWS V14.01,2013-08-13 21:30:00,
2013-08-13 17:35:00,61.2,60.3,29.71,North,359,4.5,8.1,97,0.00,,---,0.00,VWS V14.01,2013-08-13 21:35:00,
2013-08-13 17:40:00,64.4,56.3,29.71,NNW,339,6.3,8.5,75,0.00,,---,0.00,VWS V14.01,2013-08-13 21:40:00,
2013-08-13 17:45:00,61.2,58.5,29.71,North,359,6.3,9.8,91,0.00,,---,0.00,VWS V14.01,2013-08-13 21:45:00,
2013-08-13 17:50:00,61.2,58.5,29.71,NNW,335,4.5,7.2,91,0.00,,---,0.00,VWS V14.01,2013-08-13 21:50:00,
2013-08-13 17:55:00,65.3,56.4,29.71,NW,322,5.4,9.4,73,0.00,,---,0.00,VWS V14.01,2013-08-13 21:55:00,
2013-08-13 18:00:00,61.7,57.5,29.71,NNW,336,8.9,9.4,86,0.00,,---,0.00,VWS V14.01,2013-08-13 22:00:00,
2013-08-13 18:05:00,64.4,55.6,29.71,North,359,6.3,9.8,73,0.00,,---,0.00,VWS V14.01,2013-08-13 22:05:00,
2013-08-13 18:10:00,61.0,56.8,29.71,North,349,8.1,13.0,86,0.00,,---,0.00,VWS V14.01,2013-08-13 22:10:00,
2013-08-13 18:15:00,60.8,56.6,29.71,NNW,342,7.6,11.2,86,0.00,,---,0.00,VWS V14.01,2013-08-13 22:15:00,
2013-08-13 18:20:00,61.0,57.7,29.71,NNW,330,4.5,8.1,89,0.00,,---,0.00,VWS V14.01,2013-08-13 22:20:00,
2013-08-13 18:25:00,60.1,55.6,29.71,North,360,7.2,14.3,85,0.00,,---,0.00,VWS V14.01,2013-08-13 22:25:00,
2013-08-13 18:30:00,61.2,60.3,29.71,NW,323,5.8,9.4,97,0.00,,---,0.00,VWS V14.01,2013-08-13 22:30:00,
2013-08-13 18:35:00,59.7,55.2,29.71,North,360,5.4,17.9,85,0.00,,---,0.00,VWS V14.01,2013-08-13 22:35:00,
2013-08-13 18:40:00,59.4,55.2,29.71,North,360,8.1,14.8,86,0.00,,---,0.00,VWS V14.01,2013-08-13 22:40:00,
2013-08-13 18:45:00,61.2,58.5,29.71,North,359,6.3,9.8,91,0.00,,---,0.00,VWS V14.01,2013-08-13 22:45:00,
2013-08-13 18:50:00,59.0,54.8,29.74,North,357,5.8,11.2,86,0.00,,---,0.00,VWS V14.01,2013-08-13 22:50:00,
2013-08-13 18:55:00,61.2,57.6,29.71,NNW,343,8.5,9.4,88,0.00,,---,0.00,VWS V14.01,2013-08-13 22:55:00,
2013-08-13 19:00:00,58.8,54.3,29.74,NNW,339,5.8,12.5,85,0.00,,---,0.00,VWS V14.01,2013-08-13 23:00:00,
2013-08-13 19:05:00,58.6,54.2,29.74,North,357,6.7,10.3,85,0.00,,---,0.00,VWS V14.01,2013-08-13 23:05:00,
2013-08-13 19:10:00,61.0,56.8,29.71,North,349,8.1,13.0,86,0.00,,---,0.00,VWS V14.01,2013-08-13 23:10:00,
2013-08-13 19:15:00,58.1,53.0,29.74,NNW,338,11.2,13.4,83,0.00,,---,0.00,VWS V14.01,2013-08-13 23:15:00,
2013-08-13 19:20:00,60.4,55.9,29.71,North,349,5.8,11.6,85,0.00,,---,0.00,VWS V14.01,2013-08-13 23:20:00,
2013-08-13 19:25:00,57.6,52.1,29.74,NNE,18,3.6,11.2,82,0.00,,---,0.00,VWS V14.01,2013-08-13 23:25:00,
2013-08-13 19:30:00,57.4,51.6,29.74,North,356,8.9,10.7,81,0.00,,---,0.00,VWS V14.01,2013-08-13 23:30:00,
2013-08-13 19:35:00,59.7,55.2,29.71,North,360,5.4,17.9,85,0.00,,---,0.00,VWS V14.01,2013-08-13 23:35:00,
2013-08-13 19:40:00,57.0,51.3,29.74,North,350,7.2,9.8,81,0.00,,---,0.00,VWS V14.01,2013-08-13 23:40:00,
2013-08-13 19:45:00,59.2,55.3,29.74,North,356,7.2,13.9,87,0.00,,---,0.00,VWS V14.01,2013-08-13 23:45:00,
2013-08-13 19:50:00,56.5,50.1,29.74,North,359,4.5,8.9,79,0.00,,---,0.00,VWS V14.01,2013-08-13 23:50:00,
2013-08-13 19:55:00,56.3,49.5,29.74,North,1,7.2,8.1,78,0.00,,---,0.00,VWS V14.01,2013-08-13 23:55:00,
2013-08-13 20:00:00,58.8,54.3,29.74,NNW,339,5.8,12.5,85,0.00,,---,0.00,VWS V14.01,2013-08-14 00:00:00,
2013-08-13 20:05:00,55.9,49.2,29.74,North,352,9.4,12.5,78,0.00,,---,0.00,VWS V14.01,2013-08-14 00:05:00,
2013-08-13 20:10:00,58.6,54.2,29.74,NNW,340,5.8,8.5,85,0.00,,---,0.00,VWS V14.01,2013-08-14 00:10:00,
2013-08-13 20:15:00,55.2,48.2,29.74,North,352,6.3,8.1,77,0.00,,---,0.00,VWS V14.01,2013-08-14 00:15:00,
2013-08-13 20:20:00,54.9,47.8,29.74,North,350,4.9,12.1,77,0.00,,---,0.00,VWS V14.01,2013-08-14 00:20:00,
2013-08-13 20:25:00,54.5,47.8,29.74,NW,319,4.9,9.8,78,0.00,,---,0.00,VWS V14.01,2013-08-14 00:25:00,
2013-08-13 20:30:00,54.5,47.5,29.77,NW,309,7.6,13.4,77,0.00,,---,0.00,VWS V14.01,2013-08-14 00:30:00,
2013-08-13 20:35:00,57.0,51.2,29.74,North,353,4.5,12.5,81,0.00,,---,0.00,VWS V14.01,2013-08-14 00:35:00,
2013-08-13 20:40:00,54.5,47.8,29.77,NNW,343,9.8,12.1,78,0.00,,---,0.00,VWS V14.01,2013-08-14 00:40:00,
2013-08-13 20:45:00,56.8,50.8,29.74,North,360,5.4,8.5,80,0.00,,---,0.00,VWS V14.01,2013-08-14 00:45:00,
2013-08-13 20:50:00,54.5,47.5,29.77,NNW,332,10.7,13.9,77,0.00,,---,0.00,VWS V14.01,2013-08-14 00:50:00,
2013-08-13 20:55:00,54.3,47.6,29.77,North,353,7.6,11.2,78,0.00,,---,0.00,VWS V14.01,2013-08-14 00:55:00,
2013-08-13 21:00:00,56.3,49.5,29.74,NNW,329,4.9,14.8,78,0.00,,---,0.00,VWS V14.01,2013-08-14 01:00:00,
2013-08-13 21:05:00,54.0,47.3,29.77,NW,322,11.6,13.0,78,0.00,,---,0.00,VWS V14.01,2013-08-14 01:05:00,
2013-08-13 21:10:00,53.6,46.6,29.77,NW,318,12.1,13.9,77,0.00,,---,0.00,VWS V14.01,2013-08-14 01:10:00,
2013-08-13 21:15:00,53.4,46.4,29.77,NW,316,11.2,14.3,77,0.00,,---,0.00,VWS V14.01,2013-08-14 01:15:00,
2013-08-13 21:20:00,54.9,47.8,29.74,North,350,4.9,12.1,77,0.00,,---,0.00,VWS V14.01,2013-08-14 01:20:00,
2013-08-13 21:25:00,53.1,46.0,29.77,WNW,294,7.2,16.1,77,0.00,,---,0.00,VWS V14.01,2013-08-14 01:25:00,
2013-08-13 21:30:00,52.7,45.7,29.77,NW,312,7.2,13.0,77,0.00,,---,0.00,VWS V14.01,2013-08-14 01:30:00,
2013-08-13 21:35:00,54.5,47.8,29.77,NNW,336,3.6,8.5,78,0.00,,---,0.00,VWS V14.01,2013-08-14 01:35:00,
2013-08-13 21:40:00,52.2,45.5,29.77,NW,322,5.8,10.3,78,0.00,,---,0.00,VWS V14.01,2013-08-14 01:40:00,
2013-08-13 21:45:00,54.5,47.5,29.77,NW,315,7.6,14.3,77,0.00,,---,0.00,VWS V14.01,2013-08-14 01:45:00,
2013-08-13 21:50:00,52.0,45.3,29.80,West,281,4.0,14.8,78,0.00,,---,0.00,VWS V14.01,2013-08-14 01:50:00,
2013-08-13 21:55:00,52.0,45.3,29.80,NNW,343,2.2,10.3,78,0.00,,---,0.00,VWS V14.01,2013-08-14 01:55:00,
2013-08-13 22:00:00,51.8,45.2,29.80,NW,307,4.9,11.2,78,0.00,,---,0.00,VWS V14.01,2013-08-14 02:00:00,
2013-08-13 22:05:00,54.0,47.3,29.77,NW,322,11.6,13.0,78,0.00,,---,0.00,VWS V14.01,2013-08-14 02:05:00,
2013-08-13 22:10:00,51.8,45.2,29.80,NW,315,6.3,9.4,78,0.00,,---,0.00,VWS V14.01,2013-08-14 02:10:00,
2013-08-13 22:15:00,51.6,45.0,29.80,WNW,290,0.0,9.4,78,0.00,,---,0.00,VWS V14.01,2013-08-14 02:15:00,
2013-08-13 22:20:00,51.6,45.0,29.80,WNW,292,0.9,7.6,78,0.00,,---,0.00,VWS V14.01,2013-08-14 02:20:00,
2013-08-13 22:25:00,51.6,45.0,29.80,WNW,298,4.0,8.1,78,0.00,,---,0.00,VWS V14.01,2013-08-14 02:25:00,
2013-08-13 22:30:00,52.7,45.7,29.77,NW,312,7.2,13.0,77,0.00,,---,0.00,VWS V14.01,2013-08-14 02:30:00,
2013-08-13 22:35:00,52.0,45.0,29.80,WSW,257,8.5,19.7,77,0.00,,---,0.00,VWS V14.01,2013-08-14 02:35:00,
2013-08-13 22:40:00,52.0,45.0,29.80,WNW,294,7.2,15.2,77,0.00,,---,0.00,VWS V14.01,2013-08-14 02:40:00,
2013-08-13 22:45:00,52.0,45.0,29.80,WNW,300,5.4,8.9,77,0.00,,---,0.00,VWS V14.01,2013-08-14 02:45:00,
2013-08-13 22:50:00,52.0,45.3,29.80,West,281,4.0,14.8,78,0.00,,---,0.00,VWS V14.01,2013-08-14 02:50:00,
2013-08-13 22:55:00,52.0,45.0,29.80,NW,322,0.0,6.7,77,0.00,,---,0.00,VWS V14.01,2013-08-14 02:55:00,
2013-08-13 23:00:00,51.8,45.2,29.80,NW,307,4.9,11.2,78,0.00,,---,0.00,VWS V14.01,2013-08-14 03:00:00,
2013-08-13 23:05:00,51.6,45.0,29.80,North,360,7.2,8.9,78,0.00,,---,0.00,VWS V14.01,2013-08-14 03:05:00,
2013-08-13 23:10:00,51.8,45.2,29.80,NW,315,6.3,9.4,78,0.00,,---,0.00,VWS V14.01,2013-08-14 03:10:00,
2013-08-13 23:15:00,51.6,44.7,29.80,North,360,3.6,9.8,77,0.00,,---,0.00,VWS V14.01,2013-08-14 03:15:00,
2013-08-13 23:20:00,51.6,45.0,29.80,WNW,292,0.9,7.6,78,0.00,,---,0.00,VWS V14.01,2013-08-14 03:20:00,
2013-08-13 23:25:00,51.6,44.7,29.80,NW,307,0.0,8.1,77,0.00,,---,0.00,VWS V14.01,2013-08-14 03:25:00,
2013-08-13 23:30:00,51.8,45.2,29.80,NW,321,7.6,8.5,78,0.00,,---,0.00,VWS V14.01,2013-08-14 03:30:00,
2013-08-13 23:35:00,51.4,44.8,29.80,ESE,115,3.6,5.8,78,0.00,,---,0.00,VWS V14.01,2013-08-14 03:35:00,
2013-08-13 23:40:00,50.9,44.6,29.80,ESE,116,0.0,3.6,79,0.00,,---,0.00,VWS V14.01,2013-08-14 03:40:00,
2013-08-13 23:45:00,50.7,44.5,29.80,SSE,157,0.0,3.6,79,0.00,,---,0.00,VWS V14.01,2013-08-14 03:45:00,
2013-08-13 23:50:00,50.2,43.9,29.80,SSE,156,0.9,6.3,79,0.00,,---,0.00,VWS V14.01,2013-08-14 03:50:00,
2013-08-13 23:55:00,50.2,43.9,29.80,SSE,157,5.4,7.2,79,0.00,,---,0.00,VWS V14.01,2013-08-14 03:55:00,